STARLINK-1570, 46059

Orbit data source: Space-Track

STARLINK-1570, 46059 is a payload satellite owned by SpaceX/Seattle (US) in LEO that was launched on Fri, 07 Aug 2020 UTC via an FALCON 9 launch vehicle from the Air Force Eastern Test Range (AFETR). Payload-class satellites include a variety of spacecraft equipped with specific instruments for various scientific and technological missions. These include communications satellites like Starlink; space stations such as the ISS; scientific satellites like the Hubble; Earth observation satellites from companies like Planet Labs, Umbra, and HawkEye 360; GPS; miniature CubeSats for education and research; and military/defense satellites.

Loading next visibility...
Identifier
46059, 2020-055AJ
Orbit
LEO
Country
Flag of USUS
Related business
Manufacturer
SpaceX/Seattle
Mission
Operational Commercial Communications
Bus & Motor
STARLINK, Unknown motor
Mass
260 kg wet, ~248 kg dry
Launch date (UTC)
2020-08-07 (6 years ago)
Launch vehicle
FALCON 9
Launch site
Air Force Eastern Test Range (AFETR)
Object type
Payload
Rocket body
Debris
Shape & HBR
Box + 1 Pan, 10.1 m
Radar Cross Section
13.562 m², Large (>1 m²)

Expand to show TLE details & history
Last TLE update: 13 hours ago

TLE from 13 hours ago
0 STARLINK-1570
1 46059U 20055AJ  26122.96807766  .00002946  00000-0  10659-3 0  9993
2 46059  53.1597 221.5677 0001606  78.4062 281.7120 15.31719948317343
Epoch: 2026-05-02T23:14Z
TLE epoch observation values (Epoch: 2026-05-02T23:14:01.909Z)
Latitude
-0.00001°
Longitude
12.18136°
Altitude
471.358 km
Speed
7.632 km/s
True Right ascension
14h 46m 16s
True Declination
0° 00' 00"
Sunlit
Object was in full shadow at epoch
Visualization orbit readout
Latitude
Unknown
Longitude
Unknown
Altitude
Unknown
Speed
Unknown
Apparent Right ascension
Unknown
Apparent Declination
Unknown
Sunlit
N/A
Visualization observer readout
Local Sidereal Time
19:39:06
Azimuth
Unknown
Elevation
Unknown
Doppler factor
Unknown
Orbital elements
Apogee altitude
472.037 km
Perigee altitude
469.837 km
Semi-major axis
6,849.074 km
Eccentricity
0.00016
Inclination
53.1597°
RAAN
221.5677°
Arg. of periapsis
78.4062°
True anomaly
281.69398°
Mean anomaly
281.712°
Eccentric anomaly
281.70299°
Mean motion
3.82909 °/min
Orbital period
94.02 mins
BSTAR
0.00010659
Loading maneuver chart data...
Computing Atmospheric mass density...

Documentation

Showing up to 5 results
|